| |
Missouri Department of Transportation

Social Media Facebook Twitter Flickr Blog YouTube RSS

Current METAR Information for All MoDOT Locations 
AWOS Home - General Info for all Airports
Current AWOS for all Airports - Current METAR for all Airports
Glossary - Disclaimer - Other Links


Automated Weather Observation System
Date: 09-01-2014
 
Location Current METAR Record
HANNIBAL METAR KHAE 011327Z AUTO 24006KT 10SM CLR 21/18 A2979 RMK AO2 P0001
HARRISONVILLE  No current data available
LEBANON METAR KLBO 011335Z AUTO 17006KT 3SM +RA BKN004 BKN008 19/17 A3003 RMK AO2 LTG DSNT SW AND W P0009
MALDEN  No current data available
MARSHALL METAR KMHL 011411Z AUTO 26005KT 7SM CLR 20/19 A2986 RMK AO2
MARYVILLE  No current data available
MEXICO  No current data available
MOBERLY  No current data available
NEVADA METAR KNVD 011359Z AUTO 19015G19KT 10SM -RA SCT050 BKN080 OVC090 18/17 A2994 RMK AO2
PIEDMONT  No current data available
SIKESTON  No current data available
SULLIVAN METAR KUUV 011341Z AUTO 15005KT 10SM -RA SCT007 19/18 A2993 RMK AO2
WARSAW  No current data available
About Us
How Do I...
Contact Us
Missouri Department of Transportation
Central Office
105 W. Capitol Avenue
Jefferson City, MO 65102
1-888-ASK-MODOT (275-6636)
1-866-831-6277 (Motor Carrier Services)
Drivers License Offices
horz_bar
| | |
Missouri State Government
© 2013 Missouri Department of Transportation. All Rights Reserved.   Privacy Policy.
 
 
 
 
RSS FeedYoutubeBlogFlickrTwitter Facebook